[[{"header":{"parameterUnit":"m.s-1","parameterCategory":1,"la1":30.2991,"la2":30.254,"lo1":-89.0895,"lo2":-89.0444,"dy":0.0017,"dx":0.0017,"nx":28,"ny":28,"refTime":"2025-02-01T03:00:00:Z","depth":0,"parameterNumber":2,"parameterNumberName":"U-component_of_WINDS"},"data":[0,0,0,0,0,0,0,0,0,0,0,0,0,0,0,0,0,0,0,0,0,0,0,0,0,0,0,0,0,0,0,0,0,0,0,0,0,0,0,0,0,0,0,0,0,0,0,0,0,0,0,0,0,0,0,0,0,0,-0.8363,-0.8363,0,-0.8338,-0.8338,-0.8337,-0.8304,-0.8304,-0.8303,-0.8303,-0.8277,-0.8276,-0.8276,0,0,0,0,0,0,0,0,0,0,0,0,0,-0.8384,-0.8384,-0.8363,-0.8363,-0.8363,-0.8338,-0.8338,-0.8337,-0.8304,-0.8304,-0.8303,-0.8302,-0.8277,-0.8276,-0.8276,0,0,0,0,0,0,0,0,0,0,0,0,0,-0.8369,-0.8384,-0.8364,-0.8343,-0.8341,-0.8338,-0.8338,-0.8337,-0.8304,-0.8304,-0.8303,-0.8302,-0.8277,-0.8276,-0.8276,-0.8291,0,0,-0.8275,-0.8275,0,0,0,0,0,0,0,0,-0.837,-0.8368,-0.8347,-0.8345,-0.8342,-0.8323,-0.8335,-0.8322,-0.8305,-0.8318,-0.8303,-0.8302,-0.8293,-0.8291,-0.8288,-0.829,-0.8288,-0.8275,-0.8275,-0.8275,-0.8275,0,0,0,0,0,0,0,-0.8371,-0.8369,-0.8353,-0.8346,-0.8344,-0.8336,-0.8333,-0.8333,-0.8311,-0.8317,-0.8315,-0.8312,-0.8292,-0.8289,-0.8287,-0.8288,-0.8275,-0.8275,-0.8275,-0.8275,-0.8301,-0.8302,0,0,0,0,0,0,-0.8375,-0.837,-0.8354,-0.8353,-0.8354,-0.8336,-0.8333,-0.833,-0.831,-0.8307,-0.8313,-0.8311,-0.8289,-0.8288,-0.8286,-0.8303,-0.8275,-0.8275,-0.8275,-0.8301,-0.8302,-0.8303,0,0,0,0,0,0,-0.8375,-0.8374,-0.8355,-0.8361,-0.8358,-0.8337,-0.8334,-0.833,-0.8327,-0.8307,-0.8303,-0.8314,-0.8289,-0.8287,-0.829,-0.8301,-0.8275,-0.8274,-0.83,-0.8301,-0.8302,-0.8335,0,0,0,0,0,0,-0.8376,-0.8374,-0.8379,-0.8361,-0.8358,-0.8359,-0.8335,-0.833,-0.8327,-0.8324,-0.8307,-0.8303,-0.8288,-0.8291,-0.829,-0.83,-0.8274,-0.8298,-0.83,-0.8302,-0.8333,-0.8337,-0.8341,0,0,0,0,0,-0.8377,-0.8389,-0.8379,-0.8378,-0.8363,-0.836,-0.8358,-0.834,-0.8328,-0.8333,-0.832,-0.8304,-0.83,-0.8291,-0.829,-0.8301,-0.8298,-0.83,-0.8302,-0.8331,-0.8337,-0.8341,0,0,0,0,0,0,-0.8408,-0.8386,-0.8375,-0.8382,-0.8373,-0.8354,-0.836,-0.8346,-0.834,-0.8338,-0.8316,-0.8312,-0.8319,-0.831,-0.83,-0.8314,-0.8297,-0.8299,-0.832,-0.8325,-0.8329,-0.833,-0.8274,0,0,0,0,0,-0.8416,-0.8415,-0.8396,-0.8404,-0.84,-0.8381,-0.8379,-0.8366,-0.8356,-0.8352,-0.8339,-0.833,-0.8327,-0.8325,-0.8321,-0.8332,-0.8328,-0.8339,-0.8343,-0.8346,-0.8348,-0.8354,-0.8358,-0.8309,-0.8309,-0.8309,0,0,-0.8432,-0.842,-0.842,-0.841,-0.8401,-0.8401,-0.8378,-0.8378,-0.8378,-0.8352,-0.8354,-0.8345,-0.8334,-0.8341,-0.8344,-0.8334,-0.8361,-0.8349,-0.8352,-0.8351,-0.8356,-0.8361,-0.8365,-0.831,-0.831,-0.831,0,0,-0.8461,-0.8451,-0.8457,-0.845,-0.8438,-0.8425,-0.8427,-0.841,-0.8403,-0.8406,-0.8386,-0.8386,-0.8381,-0.8374,-0.837,-0.8398,-0.8383,-0.8397,-0.8419,-0.8425,-0.8428,-0.8432,-0.8442,-0.8446,-0.8399,-0.8399,-0.8399,0,-0.8482,-0.8481,-0.8462,-0.8464,-0.846,-0.8437,-0.8443,-0.8437,-0.8424,-0.8422,-0.8412,-0.8406,-0.8396,-0.8402,-0.8409,-0.8407,-0.8408,-0.8399,-0.8429,-0.8433,-0.8435,-0.8445,-0.8449,-0.8401,-0.8401,-0.8401,-0.8401,0,-0.8507,-0.8507,-0.8513,-0.8502,-0.8499,-0.8503,-0.8485,-0.8485,-0.8473,-0.8462,-0.8465,-0.8453,-0.8447,-0.8448,-0.8435,-0.8452,-0.8447,-0.8433,-0.8415,-0.8442,-0.8451,-0.8454,-0.8404,-0.8403,-0.8403,-0.8402,0,0,-0.8554,-0.8533,-0.8536,-0.8531,-0.8517,-0.8516,-0.852,-0.8514,-0.8514,-0.8507,-0.8509,-0.8507,-0.8495,-0.849,-0.8477,-0.8482,-0.8506,-0.8468,-0.8468,-0.8476,-0.8525,-0.8534,-0.8539,-0.8497,-0.8497,-0.8498,-0.8525,0,-0.858,-0.8584,-0.8568,-0.8577,-0.8577,-0.8556,-0.8559,-0.8551,-0.8542,-0.8541,-0.853,-0.8528,-0.8512,-0.8509,-0.8514,-0.8502,-0.8516,-0.85,-0.8499,-0.8499,-0.8502,-0.8543,-0.8554,-0.858,-0.8529,-0.8529,-0.853,0,-0.861,-0.8605,-0.8614,-0.86,-0.86,-0.8603,-0.8597,-0.8596,-0.8587,-0.858,-0.8575,-0.8561,-0.8564,-0.8547,-0.8552,-0.8542,-0.8541,-0.8535,-0.8536,-0.8534,-0.8516,-0.8543,-0.8588,-0.8592,-0.8535,-0.8534,-0.8534,0,-0.8643,-0.8639,-0.8644,-0.864,-0.8624,-0.8627,-0.8621,-0.8611,-0.8609,-0.8604,-0.8603,-0.8598,-0.8596,-0.8593,-0.8578,-0.8567,-0.8584,-0.8566,-0.8579,-0.8579,-0.8582,-0.8582,-0.8628,-0.8582,-0.8582,-0.8582,-0.8582,0,-0.8674,-0.868,-0.8658,-0.8661,-0.8668,-0.8651,-0.8658,-0.865,-0.8641,-0.8643,-0.8625,-0.8627,-0.8607,-0.8607,-0.8595,-0.8601,-0.86,-0.8594,-0.8591,-0.8596,-0.8596,-0.8594,-0.8592,-0.8583,-0.8583,-0.8583,-0.8583,0,-0.8711,-0.8697,-0.8701,-0.8687,-0.8683,-0.8689,-0.8676,-0.8679,-0.8669,-0.8671,-0.867,-0.8654,-0.8653,-0.8639,-0.8634,-0.8627,-0.8637,-0.8631,-0.864,-0.8638,-0.8651,-0.865,-0.8696,-0.8702,-0.8653,-0.8654,-0.8654,0,-0.8731,-0.8736,-0.8722,-0.8722,-0.8717,-0.8716,-0.8714,-0.8698,-0.8697,-0.8688,-0.8691,-0.8689,-0.8686,-0.8686,-0.8674,-0.8671,-0.8664,-0.8681,-0.8664,-0.8668,-0.8664,-0.8664,-0.8665,-0.8684,-0.8685,-0.8685,-0.8686,0,-0.8769,-0.8762,-0.876,-0.8756,-0.8754,-0.875,-0.8745,-0.8746,-0.8727,-0.8727,-0.8726,-0.8724,-0.872,-0.8718,-0.8714,-0.8707,-0.8694,-0.8691,-0.8694,-0.8699,-0.8704,-0.8701,-0.865,-0.869,-0.869,-0.8689,-0.8689,-0.8689,-0.8798,-0.8802,-0.8793,-0.8791,-0.8786,-0.8782,-0.8784,-0.8774,-0.8773,-0.8769,-0.8759,-0.876,-0.8752,-0.8744,-0.874,-0.874,-0.8732,-0.8736,-0.8737,-0.8738,-0.874,-0.8704,-0.8739,-0.8739,-0.8739,-0.8739,-0.8739,0,-0.8835,-0.8828,-0.8827,-0.8821,-0.882,-0.8808,-0.8802,-0.8802,-0.8803,-0.8797,-0.8795,-0.8794,-0.8793,-0.8782,-0.8779,-0.8782,-0.8775,-0.8782,-0.8781,-0.878,-0.8748,-0.8746,-0.8787,-0.8787,-0.8787,-0.8787,-0.8787,-0.8787,-0.8853,-0.8859,-0.8851,-0.8854,-0.8848,-0.8848,-0.8846,-0.8842,-0.8838,-0.8838,-0.8837,-0.8829,-0.8822,-0.8818,-0.8817,-0.8814,-0.8814,-0.8822,-0.8817,-0.8787,-0.8782,-0.8778,-0.8776,-0.8822,-0.8822,-0.8848,-0.8849,-0.8849]},{"header":{"parameterUnit":"m.s-1","parameterCategory":1,"la1":30.2991,"la2":30.254,"lo1":-89.0895,"lo2":-89.0444,"dy":0.0017,"dx":0.0017,"nx":28,"ny":28,"refTime":"2025-02-01T03:00:00:Z","depth":0,"parameterNumber":3,"parameterNumberName":"V-component_of_WINDS"},"data":[0,0,0,0,0,0,0,0,0,0,0,0,0,0,0,0,0,0,0,0,0,0,0,0,0,0,0,0,0,0,0,0,0,0,0,0,0,0,0,0,0,0,0,0,0,0,0,0,0,0,0,0,0,0,0,0,0,0,1.0788,1.0788,0,1.0778,1.0777,1.0777,1.0799,1.08,1.08,1.0801,1.0787,1.0786,1.0785,0,0,0,0,0,0,0,0,0,0,0,0,0,1.0825,1.0824,1.0788,1.0788,1.0788,1.0778,1.0777,1.0777,1.0799,1.08,1.0801,1.0801,1.0787,1.0786,1.0784,0,0,0,0,0,0,0,0,0,0,0,0,0,1.0811,1.0824,1.0788,1.0798,1.0798,1.0778,1.0777,1.0777,1.0799,1.08,1.0801,1.0802,1.0787,1.0786,1.0784,1.0753,0,0,1.0779,1.0779,0,0,0,0,0,0,0,0,1.0812,1.0809,1.0796,1.0797,1.0798,1.0791,1.0785,1.0769,1.0798,1.0798,1.0801,1.0802,1.0787,1.0785,1.0781,1.0752,1.0752,1.0779,1.0778,1.0778,1.0777,0,0,0,0,0,0,0,1.0812,1.081,1.0784,1.0796,1.0797,1.0801,1.0801,1.0782,1.0787,1.0798,1.08,1.0799,1.0787,1.0782,1.0781,1.0751,1.0779,1.0778,1.0777,1.0776,1.0697,1.0696,0,0,0,0,0,0,1.0813,1.0811,1.0784,1.0784,1.0808,1.08,1.0799,1.0792,1.0787,1.0787,1.0798,1.08,1.0785,1.0783,1.078,1.0744,1.0778,1.0776,1.0775,1.0698,1.0696,1.0695,0,0,0,0,0,0,1.0813,1.081,1.0785,1.0798,1.0795,1.0798,1.079,1.0791,1.0786,1.0786,1.0787,1.0792,1.0785,1.0783,1.076,1.0743,1.0775,1.0774,1.0699,1.0697,1.0696,1.067,0,0,0,0,0,0,1.0814,1.081,1.0799,1.0797,1.0794,1.0765,1.0789,1.079,1.0784,1.0786,1.0781,1.0781,1.0786,1.0762,1.0758,1.0742,1.0773,1.0701,1.0698,1.0696,1.0672,1.0667,1.0663,0,0,0,0,0,1.0816,1.0791,1.0798,1.0795,1.078,1.0764,1.0762,1.0769,1.0782,1.0771,1.0771,1.0781,1.0746,1.076,1.0756,1.0738,1.0702,1.0699,1.0696,1.0674,1.0668,1.0663,0,0,0,0,0,0,1.079,1.0791,1.0799,1.0774,1.0769,1.0768,1.0754,1.0763,1.0753,1.0756,1.0764,1.0762,1.0738,1.0736,1.0751,1.0708,1.0726,1.0722,1.071,1.0704,1.07,1.0701,1.0771,0,0,0,0,0,1.0781,1.0769,1.0771,1.0748,1.0746,1.075,1.0743,1.0749,1.0744,1.0742,1.074,1.0734,1.0721,1.0713,1.0701,1.0672,1.0671,1.0658,1.0653,1.065,1.0646,1.063,1.0625,1.0686,1.0686,1.0687,0,0,1.0763,1.0763,1.0754,1.0743,1.074,1.0727,1.0748,1.0733,1.0723,1.0739,1.0718,1.0717,1.071,1.0684,1.0672,1.0681,1.0629,1.0646,1.0643,1.0642,1.0627,1.0621,1.0616,1.0685,1.0685,1.0685,0,0,1.0724,1.0723,1.0704,1.0701,1.0696,1.0699,1.0695,1.0693,1.0693,1.0672,1.0684,1.0672,1.065,1.0645,1.0639,1.0598,1.0607,1.0594,1.0571,1.0555,1.055,1.0546,1.0531,1.0526,1.0591,1.0591,1.0591,0,1.0702,1.0683,1.0693,1.0677,1.0671,1.0687,1.0667,1.0663,1.0655,1.065,1.0661,1.0634,1.0631,1.0604,1.0594,1.0589,1.0583,1.0595,1.0551,1.0546,1.0542,1.0528,1.0523,1.0589,1.0589,1.059,1.059,0,1.0657,1.0643,1.0629,1.0621,1.0614,1.0596,1.0602,1.0594,1.06,1.0602,1.058,1.0577,1.0565,1.0559,1.0564,1.0532,1.0538,1.0549,1.0568,1.0535,1.0522,1.0516,1.0587,1.0588,1.0588,1.0588,0,0,1.06,1.0599,1.0593,1.059,1.0587,1.0576,1.0559,1.0549,1.0541,1.0535,1.052,1.0502,1.0512,1.0506,1.0511,1.0497,1.0465,1.051,1.051,1.0502,1.0429,1.0421,1.0414,1.0471,1.047,1.047,1.043,0,1.0561,1.0533,1.0541,1.0513,1.05,1.0515,1.05,1.0496,1.0497,1.0486,1.0486,1.0473,1.0488,1.0485,1.0472,1.0472,1.0451,1.0475,1.0457,1.0456,1.0458,1.0408,1.0398,1.0361,1.0425,1.0424,1.0423,0,1.0512,1.0505,1.0476,1.0475,1.047,1.0456,1.0447,1.0437,1.0432,1.0434,1.0427,1.0435,1.0417,1.0436,1.0411,1.0428,1.0421,1.042,1.0418,1.0416,1.0437,1.0404,1.0349,1.0343,1.0415,1.0416,1.0416,0,1.0474,1.0457,1.0438,1.0435,1.0433,1.0423,1.0421,1.0418,1.0411,1.0403,1.0398,1.0388,1.0382,1.0373,1.0377,1.0391,1.0352,1.0371,1.0352,1.0352,1.0342,1.0343,1.0285,1.0338,1.0339,1.0339,1.0339,0,1.043,1.0411,1.0421,1.0408,1.0388,1.0397,1.0375,1.0375,1.0372,1.036,1.0371,1.0359,1.0366,1.0354,1.0357,1.0336,1.0333,1.0333,1.0334,1.0332,1.0332,1.0327,1.033,1.0337,1.0338,1.0338,1.0338,0,1.0384,1.0389,1.0369,1.0369,1.0369,1.0353,1.0353,1.0341,1.0344,1.0327,1.0324,1.0327,1.0313,1.0317,1.0302,1.0304,1.0277,1.0282,1.0279,1.028,1.0261,1.0263,1.0198,1.019,1.0249,1.0248,1.0248,0,1.0355,1.0341,1.034,1.0333,1.0331,1.032,1.0313,1.0321,1.0314,1.0307,1.0296,1.0284,1.0274,1.0252,1.0252,1.024,1.0244,1.0223,1.0243,1.0241,1.0244,1.0244,1.0243,1.0218,1.0218,1.0217,1.0217,0,1.0303,1.0307,1.0298,1.029,1.0282,1.0275,1.027,1.0263,1.0271,1.0262,1.0249,1.0241,1.0227,1.0214,1.0203,1.0201,1.0209,1.0211,1.0205,1.0203,1.0202,1.0202,1.0268,1.0212,1.0212,1.0213,1.0213,1.0213,1.0265,1.0253,1.0251,1.024,1.0237,1.0232,1.0221,1.0223,1.0212,1.0202,1.0207,1.0191,1.0186,1.0174,1.017,1.0157,1.0165,1.0158,1.0156,1.0154,1.0151,1.0204,1.0155,1.0155,1.0155,1.0155,1.0156,0,1.0214,1.0213,1.0203,1.0196,1.0187,1.0198,1.0192,1.0184,1.0171,1.0166,1.0157,1.0142,1.013,1.0129,1.0118,1.0108,1.0111,1.0104,1.0105,1.0104,1.0145,1.015,1.0101,1.0101,1.0101,1.0101,1.0101,1.0101,1.0186,1.0167,1.017,1.015,1.0149,1.0135,1.0131,1.0126,1.0122,1.0105,1.0096,1.0096,1.0093,1.0081,1.007,1.007,1.0065,1.0056,1.0058,1.0096,1.0101,1.0106,1.0111,1.0055,1.0055,1.0018,1.0017,1.0017]}]]